User: anonymous   Login
Location: Montr�al
(45.5000°N, 73.5830°W)
Time: 18:25:57
(UTC-04:00)
Language:

Cosmos 2369 - Orbit

View from above orbital plane
View from above orbital plane
View from above satellite
View from above satellite

Ground track
Ground track

The orbit data is extracted from the following two-line orbital elements,

1 26069U 00006A   17231.14129766 -.00000172  00000-0 -66516-4 0  9999
2 26069  70.9943 227.1851 0008936 147.1058 213.0621 14.13360564905018
Epoch (UTC): 19 August 2017 03:23:28
Eccentricity: 0.0008936
inclination: 70.9943°
perigee height: 841 km
apogee height: 854 km
right ascension of ascending node: 227.1851°
argument of perigee: 147.1058°
revolutions per day: 14.13360564
mean anomaly at epoch: 213.0621°
orbit number at epoch: 90501

The dashed part of the orbit path shows where the satellite is in the earth's shadow,  

DLR